NUVIEW BRAVO

Last updated on Sun Dec 14 2025 00:02:54 GMT+0000 (Coordinated Universal Time)

1 62457U 24252D 25347.18724821 -.00000201 00000+0 00000+0 0 9995 2 62457 0.0711 159.5732 0001722 67.0072 199.8428 1.00270929 1924
UTC large
Height (km)
Speed (km/s)
/
Latitude / Longitude
Inclination (degrees)
Orbital Period (minutes)
Azimuth
Elevation
Range (km)
Doppler Factor

Next 0 passes for location: London (51.5072 / 0.1276)

Sorry there are no passes over London.